Language: 


Des rapports , des résumés tant et plus, au choix de chacun....


Données statistiques de la station
Quotidien Rapport Décembre 31, 2017 Unités:  Métrique    Anglais   les deux
« Précédent Jour
Suivant Jour »
Quotidien Hebdomadaire Mensuel Annuel Actuel
  Haut: Bas: Moyen:
Température: -17.8 °C -13.7 °C -11.2 °C
Pt de rosée: -17.8 °C -15 °C -11.7 °C
Humidité: Humidity % 76 % 93 %
Vitesse du vent: 0 km/h 0 km/h 34.3 km/h
Rafales: 0 km/h - -
Vent:- - SW
Pression: 0 hPa 33731.3 hPa -
Précipitation: 469.9 mm    
Historical Graphs
 
 
Données statistiques pour Décembre 31, 2017
Heure Température Point de rosée Pression Vent Vitesse du vent Refales Humidité Pluie (taux horaire)
-17.8 °C -17.8 °C 0 hPa Calm     Humidity % 0 mm
00:01 -11.9 °C -11.7 °C 33958.2 hPa South 9.8 km/h 18.7 km/h 98 % 20.32 mm
00:03 -11.9 °C -11.7 °C 33958.2 hPa SSW 10.3 km/h 19.2 km/h 98 % 20.32 mm
00:08 -11.9 °C -11.7 °C 33958.2 hPa South 17.9 km/h 22 km/h 98 % 12.7 mm
00:13 -11.9 °C -11.7 °C 33958.2 hPa Calm   22 km/h 98 % 12.7 mm
00:16 -11.9 °C -11.7 °C 33958.2 hPa Calm   22 km/h 98 % 12.7 mm
00:21 -11.9 °C -11.7 °C 33958.2 hPa South 12.7 km/h 20.3 km/h 98 % 12.7 mm
00:22 -11.9 °C -11.7 °C 33958.2 hPa SSW 15.6 km/h 20.3 km/h 98 % 20.32 mm
00:26 -11.9 °C -11.7 °C 33958.2 hPa Calm   20.3 km/h 98 % 12.7 mm
00:29 -11.8 °C -11.7 °C 33958.2 hPa South 14 km/h 22.5 km/h 98 % 25.4 mm
00:34 -11.8 °C -11.7 °C 33958.2 hPa SSW 11.1 km/h 22.5 km/h 98 % 25.4 mm
00:39 -11.7 °C -11.7 °C 33958.2 hPa South 16.3 km/h 22.5 km/h 98 % 33.02 mm
00:44 -11.7 °C -11.7 °C 33924.3 hPa SSW 10.3 km/h 20.9 km/h 98 % 33.02 mm
00:48 -11.7 °C -11.7 °C 33924.3 hPa SSW 2.9 km/h 19.2 km/h 98 % 25.4 mm
00:53 -11.6 °C -11.7 °C 33924.3 hPa South 14 km/h 23 km/h 98 % 33.02 mm
00:55 -11.6 °C -11.7 °C 33924.3 hPa SW 16.3 km/h 23 km/h 98 % 38.1 mm
01:00 -11.6 °C -11.7 °C 33958.2 hPa SSW 16.9 km/h 20.9 km/h 98 % 45.72 mm
01:04 -11.5 °C -11.7 °C 33958.2 hPa SSW 15 km/h 22.5 km/h 98 % 58.42 mm
01:06 -11.5 °C -11.7 °C 33958.2 hPa SW 20.9 km/h 22.5 km/h 98 % 58.42 mm
01:10 -11.4 °C -11.7 °C 33958.2 hPa SSW 16.9 km/h 26.7 km/h 98 % 63.5 mm
01:13 -11.4 °C -11.1 °C 33958.2 hPa SSW 15 km/h 26.7 km/h 98 % 63.5 mm
01:18 -11.3 °C -11.1 °C 33958.2 hPa SSW 24.3 km/h 26.7 km/h 98 % 71.12 mm
01:22 -11.3 °C -11.1 °C 33958.2 hPa WSW 20.9 km/h 27.7 km/h 98 % 71.12 mm
01:27 -11.2 °C -11.1 °C 33958.2 hPa WSW 23 km/h 28.5 km/h 98 % 76.2 mm
01:29 -11.2 °C -11.1 °C 33958.2 hPa SSW 25.4 km/h 34.8 km/h 98 % 71.12 mm
01:34 -11.1 °C -11.1 °C 33958.2 hPa SSW 26.2 km/h 35.2 km/h 98 % 76.2 mm
01:35 -11.1 °C -11.1 °C 33958.2 hPa WSW 32.3 km/h 35.2 km/h 98 % 76.2 mm
01:40 -11 °C -11.1 °C 33958.2 hPa SSW 27.7 km/h 39.4 km/h 98 % 71.12 mm
01:43 -11 °C -11.1 °C 33958.2 hPa SW 29.5 km/h 39.4 km/h 98 % 71.12 mm
01:48 -10.9 °C -10.6 °C 33958.2 hPa SW 36.5 km/h 39.9 km/h 98 % 71.12 mm
01:52 -10.9 °C -10.6 °C 33958.2 hPa SSW 22.5 km/h 39.9 km/h 98 % 71.12 mm
01:57 -10.9 °C -10.6 °C 33958.2 hPa WSW 27.7 km/h 46.3 km/h 98 % 58.42 mm
02:02 -10.9 °C -10.6 °C 33958.2 hPa WSW 25.4 km/h 46.3 km/h 98 % 45.72 mm
02:07 -10.8 °C -10.6 °C 33958.2 hPa SSW 33.2 km/h 42.2 km/h 98 % 45.72 mm
02:11 -10.8 °C -10.6 °C 33958.2 hPa SW 41.2 km/h 41.2 km/h 98 % 38.1 mm
02:16 -10.8 °C -10.6 °C 33958.2 hPa SW 26.2 km/h 41.2 km/h 98 % 33.02 mm
02:17 -10.8 °C -10.6 °C 33958.2 hPa SSW 46.8 km/h 46.8 km/h 98 % 33.02 mm
02:22 -10.8 °C -10.6 °C 33958.2 hPa SW 22 km/h 46.8 km/h 98 % 20.32 mm
02:24 -10.8 °C -10.6 °C 33958.2 hPa WSW 39.4 km/h 46.8 km/h 98 % 20.32 mm
02:29 -10.8 °C -10.6 °C 33958.2 hPa WSW 45.1 km/h 49.2 km/h 98 % 12.7 mm
02:34 -10.8 °C -10.6 °C 33958.2 hPa WSW 44.6 km/h 49.2 km/h 98 % 7.62 mm
02:36 -10.8 °C -10.6 °C 33958.2 hPa WSW 33.2 km/h 49.2 km/h 98 % 7.62 mm
02:41 -10.8 °C -10.6 °C 33958.2 hPa WSW 27.7 km/h 44.6 km/h 98 % 12.7 mm
02:46 -10.8 °C -10.6 °C 33958.2 hPa SSW 24.8 km/h 51.5 km/h 98 % 12.7 mm
02:48 -10.8 °C -10.6 °C 33958.2 hPa SW 29 km/h 51.5 km/h 98 % 12.7 mm
02:53 -10.8 °C -10.6 °C 33958.2 hPa SW 19.6 km/h 51.5 km/h 98 % 7.62 mm
02:55 -10.8 °C -10.6 °C 33958.2 hPa SSW 22.5 km/h 39.9 km/h 98 % 12.7 mm
03:00 -10.8 °C -10.6 °C 33958.2 hPa SW 34.1 km/h 34.1 km/h 98 % 12.7 mm
03:02 -10.8 °C -10.6 °C 33958.2 hPa WSW 31.4 km/h 39.9 km/h 98 % 25.4 mm
03:07 -10.8 °C -10.6 °C 33958.2 hPa WSW 22.5 km/h 39.9 km/h 98 % 33.02 mm
03:12 -10.8 °C -10.6 °C 33958.2 hPa WSW 20.3 km/h 34.8 km/h 98 % 33.02 mm
03:14 -10.8 °C -10.6 °C 33958.2 hPa SSW 28.5 km/h 36 km/h 98 % 33.02 mm
03:16 -10.9 °C -10.6 °C 33958.2 hPa SSW 22.5 km/h 38.3 km/h 98 % 38.1 mm
03:21 -10.9 °C -10.6 °C 33958.2 hPa South 20.3 km/h 38.3 km/h 98 % 38.1 mm
03:23 -10.9 °C -10.6 °C 33958.2 hPa SW 19.6 km/h 38.3 km/h 98 % 38.1 mm
03:27 -10.9 °C -10.6 °C 33958.2 hPa SW 20.3 km/h 34.1 km/h 98 % 38.1 mm
03:30 -10.9 °C -10.6 °C 33958.2 hPa SSW 19.6 km/h 32.3 km/h 98 % 38.1 mm
03:31 -10.9 °C -10.6 °C 33958.2 hPa SW 26.2 km/h 32.3 km/h 98 % 38.1 mm
03:36 -10.9 °C -10.6 °C 33958.2 hPa SSW 27.2 km/h 33.6 km/h 98 % 38.1 mm
03:37 -10.9 °C -10.6 °C 33958.2 hPa SW 20.9 km/h 33.6 km/h 98 % 38.1 mm
03:40 -10.9 °C -10.6 °C 33958.2 hPa SSW 26.7 km/h 33.6 km/h 98 % 45.72 mm
03:45 -10.9 °C -10.6 °C 33924.3 hPa SSW 30.7 km/h 34.1 km/h 98 % 38.1 mm
03:49 -10.8 °C -10.6 °C 33924.3 hPa SSW 37.5 km/h 44.1 km/h 98 % 38.1 mm
03:54 -10.8 °C -10.6 °C 33924.3 hPa SSW 31.4 km/h 44.1 km/h 98 % 38.1 mm
03:55 -10.8 °C -10.6 °C 33924.3 hPa SSW 45.1 km/h 45.1 km/h 98 % 33.02 mm
04:00 -10.8 °C -10.6 °C 33924.3 hPa WSW 27.2 km/h 45.1 km/h 98 % 33.02 mm
04:05 -10.7 °C -10.6 °C 33924.3 hPa WSW 34.1 km/h 49.7 km/h 98 % 20.32 mm
04:06 -10.7 °C -10.6 °C 33924.3 hPa SW 37 km/h 49.7 km/h 98 % 12.7 mm
04:07 -10.7 °C -10.6 °C 33924.3 hPa SW 41.2 km/h 49.7 km/h 98 % 12.7 mm
04:13 -10.6 °C -10.6 °C 33924.3 hPa SSW 24.8 km/h 49.7 km/h 98 % 12.7 mm
04:18 -10.6 °C -10.6 °C 33924.3 hPa SSW 39.4 km/h 51 km/h 98 % 7.62 mm
04:24 -10.5 °C -10.6 °C 33924.3 hPa SSW 40.7 km/h 66.6 km/h 97 % 7.62 mm
04:29 -10.4 °C -10.6 °C 33924.3 hPa WSW 46.3 km/h 66.6 km/h 95 % 7.62 mm
04:31 -10.4 °C -10.6 °C 33924.3 hPa SW 45.9 km/h 51.5 km/h 95 % 7.62 mm
04:36 -10.3 °C -10.6 °C 33924.3 hPa SW 36 km/h 67.9 km/h 93 % 7.62 mm
04:37 -10.3 °C -10.6 °C 33924.3 hPa SW 39.4 km/h 67.9 km/h 93 % 7.62 mm
04:42 -10.3 °C -11.1 °C 33924.3 hPa SSW 44.1 km/h 67.9 km/h 92 % 0 mm
04:47 -10.3 °C -10.6 °C 33924.3 hPa SSW 32.3 km/h 67.9 km/h 91 % 0 mm
04:49 -10.3 °C -11.1 °C 33924.3 hPa SW 28.5 km/h 67.9 km/h 90 % 0 mm
04:54 -10.3 °C -11.1 °C 33924.3 hPa WSW 39.4 km/h 50.5 km/h 90 % 0 mm
04:58 -10.3 °C -11.1 °C 33924.3 hPa WSW 37 km/h 62 km/h 89 % 0 mm
05:03 -10.3 °C -11.1 °C 33924.3 hPa SSW 29.5 km/h 62 km/h 89 % 0 mm
05:08 -10.3 °C -11.1 °C 33924.3 hPa WSW 40.7 km/h 43.5 km/h 89 % 0 mm
05:13 -10.3 °C -11.1 °C 33924.3 hPa SW 39.9 km/h 55.2 km/h 88 % 0 mm
05:14 -10.3 °C -11.1 °C 33924.3 hPa SSW 45.1 km/h 55.2 km/h 88 % 0 mm
05:19 -10.3 °C -11.1 °C 33924.3 hPa SSW 26.7 km/h 55.2 km/h 88 % 0 mm
05:23 -10.3 °C -11.1 °C 33924.3 hPa SW 56.6 km/h 56.6 km/h 87 % 0 mm
05:28 -10.3 °C -11.1 °C 33924.3 hPa SSW 40.7 km/h 56.6 km/h 87 % 0 mm
05:30 -10.3 °C -11.1 °C 33924.3 hPa SW 26.2 km/h 56.6 km/h 87 % 0 mm
05:35 -10.3 °C -11.1 °C 33924.3 hPa South 27.7 km/h 55.7 km/h 87 % 0 mm
05:36 -10.3 °C -11.1 °C 33924.3 hPa SSW 45.1 km/h 52.8 km/h 87 % 0 mm
05:41 -10.3 °C -11.1 °C 33890.5 hPa SSW 27.7 km/h 50.5 km/h 87 % 0 mm
05:43 -10.3 °C -11.1 °C 33890.5 hPa SSW 33.6 km/h 50.5 km/h 87 % 0 mm
05:48 -10.3 °C -11.7 °C 33890.5 hPa WSW 26.7 km/h 50.5 km/h 86 % 0 mm
05:50 -10.3 °C -11.7 °C 33890.5 hPa SW 34.1 km/h 48.6 km/h 86 % 0 mm
05:54 -10.3 °C -11.7 °C 33890.5 hPa SW 27.2 km/h 48.6 km/h 86 % 0 mm
05:57 -10.3 °C -11.7 °C 33890.5 hPa SSW 49.7 km/h 49.7 km/h 86 % 0 mm
06:00 -10.3 °C -11.7 °C 33890.5 hPa SSW 33.6 km/h 50.5 km/h 86 % 0 mm
06:05 -10.3 °C -11.1 °C 33890.5 hPa SW 44.6 km/h 50.5 km/h 85 % 0 mm
06:09 -10.3 °C -11.1 °C 33890.5 hPa SSW 26.7 km/h 48.6 km/h 85 % 0 mm
06:14 -10.2 °C -11.7 °C 33890.5 hPa SSW 37 km/h 48.6 km/h 84 % 0 mm
06:15 -10.2 °C -11.7 °C 33890.5 hPa SSW 40.7 km/h 48.6 km/h 84 % 0 mm
06:20 -10.2 °C -11.7 °C 33890.5 hPa SW 38.3 km/h 49.2 km/h 84 % 0 mm
06:24 -10.2 °C -11.7 °C 33890.5 hPa WSW 46.3 km/h 51.5 km/h 84 % 0 mm
06:28 -10.3 °C -11.7 °C 33890.5 hPa SSW 34.1 km/h 54.4 km/h 84 % 0 mm
06:29 -10.3 °C -11.1 °C 33890.5 hPa SW 43.5 km/h 54.4 km/h 85 % 0 mm
06:34 -10.4 °C -11.7 °C 33890.5 hPa SW 48.1 km/h 54.4 km/h 85 % 0 mm
06:35 -10.4 °C -11.7 °C 33890.5 hPa SW 44.1 km/h 54.4 km/h 85 % 0 mm
06:36 -10.4 °C -11.7 °C 33890.5 hPa SSW 58.6 km/h 58.6 km/h 85 % 0 mm
06:37 -10.4 °C -11.7 °C 33890.5 hPa SW 45.1 km/h 58.6 km/h 86 % 0 mm
06:41 -10.4 °C -11.7 °C 33890.5 hPa SSW 33.6 km/h 58.6 km/h 86 % 0 mm
06:44 -10.4 °C -11.7 °C 33890.5 hPa SSW 27.2 km/h 59.1 km/h 86 % 0 mm
06:48 -10.4 °C -11.1 °C 33890.5 hPa WSW 45.9 km/h 59.1 km/h 87 % 0 mm
06:51 -10.4 °C -11.1 °C 33890.5 hPa SSW 28.5 km/h 59.1 km/h 87 % 0 mm
06:56 -10.6 °C -11.1 °C 33890.5 hPa SW 55.7 km/h 55.7 km/h 89 % 0 mm
06:58 -10.6 °C -11.1 °C 33890.5 hPa SW 28.5 km/h 55.7 km/h 90 % 0 mm
07:02 -10.7 °C -11.1 °C 33890.5 hPa SSW 32.3 km/h 62 km/h 91 % 0 mm
07:04 -10.7 °C -11.1 °C 33890.5 hPa SW 37 km/h 62 km/h 92 % 0 mm
07:09 -10.8 °C -11.1 °C 33890.5 hPa SSW 39.4 km/h 62 km/h 93 % 0 mm
07:14 -10.8 °C -11.1 °C 33856.6 hPa SW 41.7 km/h 53.3 km/h 93 % 0 mm
07:15 -10.8 °C -11.1 °C 33856.6 hPa SSW 28.5 km/h 51 km/h 94 % 0 mm
07:21 -10.9 °C -11.1 °C 33856.6 hPa SW 45.9 km/h 56.6 km/h 94 % 0 mm
07:23 -10.9 °C -11.1 °C 33856.6 hPa SSW 33.6 km/h 56.6 km/h 95 % 0 mm
07:28 -10.9 °C -11.1 °C 33890.5 hPa SW 39.4 km/h 56.6 km/h 95 % 0 mm
07:29 -10.9 °C -11.1 °C 33890.5 hPa SSW 39.4 km/h 56.6 km/h 95 % 0 mm
07:34 -10.8 °C -11.1 °C 33890.5 hPa WSW 32.3 km/h 45.1 km/h 95 % 0 mm
07:36 -10.8 °C -10.6 °C 33890.5 hPa SW 32.3 km/h 45.1 km/h 96 % 0 mm
07:41 -10.8 °C -11.1 °C 33890.5 hPa SSW 28.5 km/h 50.5 km/h 95 % 0 mm
07:46 -10.8 °C -11.1 °C 33890.5 hPa WSW 44.1 km/h 50.5 km/h 95 % 0 mm
07:47 -10.8 °C -11.1 °C 33890.5 hPa SSW 31.9 km/h 50.5 km/h 95 % 0 mm
07:49 -10.8 °C -11.1 °C 33890.5 hPa SSW 40.7 km/h 48.6 km/h 95 % 0 mm
07:54 -10.7 °C -11.1 °C 33890.5 hPa SW 50.5 km/h 50.5 km/h 95 % 0 mm
07:55 -10.7 °C -11.1 °C 33890.5 hPa SW 33.2 km/h 50.5 km/h 95 % 0 mm
07:56 -10.7 °C -11.1 °C 33890.5 hPa SW 27.7 km/h 50.5 km/h 95 % 0 mm
08:01 -10.7 °C -11.1 °C 33890.5 hPa SSW 41.2 km/h 61.3 km/h 95 % 0 mm
08:03 -10.7 °C -11.1 °C 33890.5 hPa SSW 37.5 km/h 61.3 km/h 95 % 0 mm
08:04 -10.7 °C -11.1 °C 33890.5 hPa SW 51 km/h 61.3 km/h 95 % 0 mm
08:09 -10.7 °C -11.1 °C 33890.5 hPa South 39.4 km/h 51 km/h 95 % 0 mm
08:14 -10.8 °C -11.1 °C 33890.5 hPa SSW 41.7 km/h 51.5 km/h 95 % 0 mm
08:16 -10.8 °C -10.6 °C 33890.5 hPa SSW 27.2 km/h 51.5 km/h 96 % 0 mm
08:21 -10.7 °C -10.6 °C 33890.5 hPa SSW 37.5 km/h 51 km/h 96 % 0 mm
08:24 -10.7 °C -11.1 °C 33890.5 hPa SW 33.6 km/h 51.5 km/h 95 % 0 mm
08:30 -10.7 °C -10.6 °C 33890.5 hPa SW 28.5 km/h 51.5 km/h 95 % 0 mm
08:35 -10.7 °C -10.6 °C 33890.5 hPa SSW 20.9 km/h 57.3 km/h 95 % 0 mm
08:36 -10.7 °C -10.6 °C 33890.5 hPa SW 49.2 km/h 57.3 km/h 95 % 0 mm
08:41 -10.6 °C -10.6 °C 33890.5 hPa South 28.5 km/h 57.3 km/h 95 % 0 mm
08:42 -10.6 °C -11.1 °C 33890.5 hPa South 39.4 km/h 57.3 km/h 94 % 0 mm
08:47 -10.6 °C -11.1 °C 33890.5 hPa WSW 27.2 km/h 48.6 km/h 94 % 0 mm
08:52 -10.6 °C -11.1 °C 33890.5 hPa SW 29 km/h 51 km/h 93 % 0 mm
08:54 -10.6 °C -11.1 °C 33890.5 hPa SSW 26.7 km/h 51 km/h 93 % 0 mm
08:56 -10.6 °C -11.1 °C 33856.6 hPa WSW 20.3 km/h 51 km/h 93 % 0 mm
09:01 -10.6 °C -11.1 °C 33856.6 hPa SW 33.2 km/h 45.1 km/h 93 % 0 mm
09:06 -10.5 °C -11.1 °C 33856.6 hPa South 31.4 km/h 45.1 km/h 92 % 0 mm
09:09 -10.5 °C -11.1 °C 33856.6 hPa WSW 28.5 km/h 45.1 km/h 92 % 0 mm
09:14 -10.5 °C -11.1 °C 33856.6 hPa SW 22.5 km/h 45.1 km/h 92 % 0 mm
09:15 -10.5 °C -11.1 °C 33856.6 hPa WSW 45.1 km/h 45.1 km/h 92 % 0 mm
09:18 -10.5 °C -11.1 °C 33856.6 hPa South 31.4 km/h 45.1 km/h 92 % 0 mm
09:23 -10.5 °C -11.1 °C 33856.6 hPa South 37.5 km/h 45.1 km/h 92 % 0 mm
09:27 -10.5 °C -11.1 °C 33856.6 hPa SSW 44.1 km/h 51 km/h 92 % 0 mm
09:32 -10.5 °C -11.1 °C 33856.6 hPa SW 39.4 km/h 51.5 km/h 92 % 0 mm
09:34 -10.5 °C -11.1 °C 33856.6 hPa SSW 36.5 km/h 51.5 km/h 92 % 0 mm
09:39 -10.4 °C -11.1 °C 33856.6 hPa SSW 36.5 km/h 51.5 km/h 92 % 0 mm
09:42 -10.4 °C -11.1 °C 33856.6 hPa WSW 26.7 km/h 49.7 km/h 92 % 0 mm
09:44 -10.4 °C -11.1 °C 33856.6 hPa SSW 34.1 km/h 52 km/h 92 % 0 mm
09:49 -10.3 °C -11.1 °C 33856.6 hPa South 28.5 km/h 52 km/h 92 % 0 mm
09:51 -10.3 °C -11.1 °C 33856.6 hPa SW 27.7 km/h 52 km/h 92 % 0 mm
09:55 -10.3 °C -10.6 °C 33856.6 hPa SSW 23 km/h 45.1 km/h 91 % 0 mm
09:58 -10.3 °C -10.6 °C 33856.6 hPa South 33.2 km/h 44.1 km/h 91 % 0 mm
10:03 -10.3 °C -10.6 °C 33856.6 hPa SSW 39.4 km/h 49.2 km/h 91 % 0 mm
10:04 -10.3 °C -10.6 °C 33856.6 hPa WSW 31.9 km/h 49.2 km/h 91 % 0 mm
10:07 -10.2 °C -10.6 °C 33856.6 hPa WSW 19.6 km/h 49.2 km/h 91 % 0 mm
10:09 -10.2 °C -10.6 °C 33856.6 hPa South 25.4 km/h 49.2 km/h 91 % 0 mm
10:14 -10.2 °C -11.1 °C 33856.6 hPa SW 32.3 km/h 45.9 km/h 90 % 0 mm
10:19 -10.2 °C -11.1 °C 33856.6 hPa SW 24.3 km/h 48.1 km/h 90 % 0 mm
10:20 -10.2 °C -11.1 °C 33856.6 hPa SSW 32.3 km/h 48.1 km/h 90 % 0 mm
10:25 -10.2 °C -11.1 °C 33856.6 hPa SSW 41.2 km/h 48.1 km/h 89 % 0 mm
10:27 -10.2 °C -11.1 °C 33856.6 hPa WSW 32.3 km/h 48.1 km/h 89 % 0 mm
10:32 -10.2 °C -11.1 °C 33856.6 hPa SSW 20.9 km/h 43 km/h 89 % 0 mm
10:34 -10.2 °C -11.1 °C 33856.6 hPa SSW 26.7 km/h 41.7 km/h 89 % 0 mm
10:36 -10.2 °C -11.1 °C 33856.6 hPa WSW 27.2 km/h 41.7 km/h 89 % 0 mm
10:39 -10.2 °C -11.1 °C 33856.6 hPa SSW 26.7 km/h 44.6 km/h 89 % 0 mm
10:45 -10.1 °C -11.1 °C 33822.8 hPa SW 59.1 km/h 67.9 km/h 88 % 0 mm
10:46 -10.1 °C -11.1 °C 33822.8 hPa WSW 31.4 km/h 67.9 km/h 88 % 0 mm
10:51 -10 °C -11.1 °C 33822.8 hPa SSW 44.1 km/h 67.9 km/h 86 % 0 mm
10:55 -9.9 °C -11.1 °C 33822.8 hPa SSW 33.2 km/h 59.1 km/h 86 % 0 mm
10:56 -9.9 °C -11.1 °C 33822.8 hPa WSW 34.8 km/h 59.1 km/h 86 % 0 mm
11:01 -9.9 °C -11.1 °C 33822.8 hPa SW 39.9 km/h 63.2 km/h 85 % 0 mm
11:02 -9.9 °C -11.1 °C 33822.8 hPa SSW 50.5 km/h 63.2 km/h 85 % 0 mm
11:04 -9.9 °C -11.1 °C 33822.8 hPa SSW 41.2 km/h 63.2 km/h 85 % 0 mm
11:08 -9.9 °C -11.1 °C 33822.8 hPa SW 54.4 km/h 63.2 km/h 84 % 0 mm
11:13 -9.9 °C -11.1 °C 33788.9 hPa WSW 27.2 km/h 61.3 km/h 85 % 0 mm
11:18 -9.9 °C -11.1 °C 33788.9 hPa SW 52.8 km/h 71.1 km/h 84 % 0 mm
11:19 -9.9 °C -11.1 °C 33788.9 hPa SSW 40.7 km/h 71.1 km/h 84 % 0 mm
11:23 -9.9 °C -11.1 °C 33788.9 hPa SW 42.2 km/h 71.1 km/h 85 % 0 mm
11:28 -9.9 °C -11.1 °C 33822.8 hPa SW 33.6 km/h 62 km/h 84 % 0 mm
11:34 -9.9 °C -11.1 °C 33822.8 hPa SW 39.4 km/h 62 km/h 85 % 0 mm
11:38 -9.9 °C -11.1 °C 33822.8 hPa SW 69.4 km/h 71.8 km/h 84 % 0 mm
11:43 -9.9 °C -11.7 °C 33822.8 hPa WSW 34.8 km/h 71.8 km/h 83 % 0 mm
11:49 -9.9 °C -11.1 °C 33822.8 hPa WSW 39.4 km/h 63.7 km/h 83 % 0 mm
11:50 -9.9 °C -11.1 °C 33822.8 hPa South 27.2 km/h 63.7 km/h 83 % 0 mm
11:55 -9.9 °C -11.1 °C 33822.8 hPa SSW 57.3 km/h 68.9 km/h 82 % 0 mm
11:57 -9.9 °C -11.1 °C 33822.8 hPa SW 53.9 km/h 68.9 km/h 82 % 0 mm
12:02 -9.9 °C -11.7 °C 33822.8 hPa WSW 57.9 km/h 65 km/h 82 % 0 mm
12:04 -10.1 °C -11.1 °C 33822.8 hPa WSW 51.5 km/h 65 km/h 86 % 0 mm
12:09 -10.4 °C -11.1 °C 33822.8 hPa West 43.5 km/h 74 km/h 90 % 38.1 mm
12:10 -10.5 °C -11.1 °C 33822.8 hPa WSW 62.6 km/h 74 km/h 90 % 45.72 mm
12:11 -10.6 °C -11.1 °C 33822.8 hPa WSW 65 km/h 74 km/h 91 % 58.42 mm
12:16 -10.7 °C -11.1 °C 33822.8 hPa WSW 32.3 km/h 74 km/h 93 % 58.42 mm
12:17 -10.7 °C -11.1 °C 33822.8 hPa WSW 40.7 km/h 74 km/h 94 % 63.5 mm
12:18 -10.7 °C -11.1 °C 33822.8 hPa WSW 48.6 km/h 65.5 km/h 94 % 63.5 mm
12:22 -10.8 °C -11.1 °C 33822.8 hPa WSW 39.4 km/h 66.6 km/h 95 % 63.5 mm
12:27 -10.8 °C -10.6 °C 33788.9 hPa West 51.5 km/h 68.4 km/h 96 % 71.12 mm
12:31 -10.8 °C -10.6 °C 33788.9 hPa WSW 34.1 km/h 68.4 km/h 97 % 71.12 mm
12:34 -10.8 °C -10.6 °C 33788.9 hPa SW 36 km/h 68.4 km/h 98 % 76.2 mm
12:39 -10.8 °C -10.6 °C 33788.9 hPa WSW 44.6 km/h 51.5 km/h 98 % 76.2 mm
12:42 -10.9 °C -10.6 °C 33822.8 hPa West 28.5 km/h 52 km/h 98 % 83.82 mm
12:47 -10.9 °C -10.6 °C 33822.8 hPa WSW 51.5 km/h 62.6 km/h 98 % 83.82 mm
12:49 -10.9 °C -10.6 °C 33822.8 hPa WSW 41.7 km/h 62.6 km/h 98 % 96.52 mm
12:54 -10.9 °C -10.6 °C 33822.8 hPa WSW 39.9 km/h 62.6 km/h 98 % 96.52 mm
12:59 -11 °C -11.1 °C 33822.8 hPa WSW 39.9 km/h 45.9 km/h 98 % 96.52 mm
13:03 -11 °C -11.1 °C 33822.8 hPa WSW 34.1 km/h 44.1 km/h 98 % 96.52 mm
13:04 -11 °C -11.1 °C 33822.8 hPa WSW 27.2 km/h 44.1 km/h 98 % 104.14 mm
13:09 -11 °C -11.1 °C 33822.8 hPa SW 28.5 km/h 39.4 km/h 98 % 58.42 mm
13:12 -11 °C -11.1 °C 33822.8 hPa WSW 34.8 km/h 39.4 km/h 98 % 45.72 mm
13:17 -11 °C -11.1 °C 33822.8 hPa SW 38.3 km/h 39.9 km/h 98 % 45.72 mm
13:22 -11 °C -11.1 °C 33822.8 hPa WSW 24.8 km/h 39.9 km/h 98 % 45.72 mm
13:27 -11 °C -11.1 °C 33822.8 hPa WSW 24.3 km/h 39.9 km/h 98 % 38.1 mm
13:32 -11 °C -11.1 °C 33822.8 hPa WSW 27.7 km/h 37.5 km/h 98 % 33.02 mm
13:37 -11 °C -11.1 °C 33822.8 hPa WSW 31.4 km/h 43.5 km/h 98 % 38.1 mm
13:38 -11 °C -11.1 °C 33822.8 hPa WSW 29.5 km/h 44.6 km/h 98 % 38.1 mm
13:43 -11.1 °C -11.1 °C 33822.8 hPa SW 27.2 km/h 45.1 km/h 98 % 33.02 mm
13:45 -11.1 °C -11.1 °C 33822.8 hPa WSW 26.7 km/h 45.1 km/h 98 % 33.02 mm
13:50 -11.1 °C -11.1 °C 33822.8 hPa WSW 28.5 km/h 35.2 km/h 98 % 33.02 mm
13:52 -11.1 °C -11.1 °C 33822.8 hPa WSW 41.2 km/h 41.2 km/h 98 % 33.02 mm
13:57 -11.1 °C -11.1 °C 33822.8 hPa SW 31.9 km/h 41.2 km/h 98 % 33.02 mm
14:01 -11.1 °C -11.1 °C 33822.8 hPa SW 26.2 km/h 41.2 km/h 98 % 33.02 mm
14:06 -11.1 °C -11.1 °C 33822.8 hPa SW 27.7 km/h 39.9 km/h 98 % 20.32 mm
14:11 -11.1 °C -11.1 °C 33788.9 hPa SW 25.4 km/h 44.1 km/h 98 % 33.02 mm
14:15 -11.1 °C -11.1 °C 33788.9 hPa WSW 20.3 km/h 45.9 km/h 98 % 33.02 mm
14:18 -11.1 °C -11.1 °C 33788.9 hPa SW 30.7 km/h 45.9 km/h 98 % 20.32 mm
14:21 -11.1 °C -11.1 °C 33788.9 hPa SW 19.6 km/h 45.9 km/h 98 % 33.02 mm
14:26 -11.1 °C -11.1 °C 33788.9 hPa SW 22 km/h 34.1 km/h 98 % 33.02 mm
14:28 -11.1 °C -11.1 °C 33788.9 hPa WSW 15 km/h 34.1 km/h 98 % 33.02 mm
14:33 -11.1 °C -11.1 °C 33788.9 hPa SW 32.3 km/h 34.1 km/h 98 % 25.4 mm
14:35 -11.1 °C -11.1 °C 33788.9 hPa SW 20.3 km/h 33.2 km/h 98 % 33.02 mm
14:40 -11.1 °C -11.1 °C 33788.9 hPa WSW 12.7 km/h 33.2 km/h 98 % 33.02 mm
14:44 -11.1 °C -11.1 °C 33788.9 hPa WSW 19.2 km/h 32.3 km/h 98 % 33.02 mm
14:49 -11.1 °C -11.1 °C 33788.9 hPa SW 20.9 km/h 39.9 km/h 98 % 33.02 mm
14:53 -11.2 °C -11.1 °C 33788.9 hPa WSW 19.6 km/h 39.9 km/h 98 % 33.02 mm
14:58 -11.2 °C -11.1 °C 33788.9 hPa WSW 33.6 km/h 39.9 km/h 98 % 33.02 mm
14:59 -11.2 °C -11.1 °C 33788.9 hPa SSW 16.3 km/h 33.6 km/h 98 % 33.02 mm
15:03 -11.2 °C -11.1 °C 33788.9 hPa WSW 22 km/h 34.1 km/h 98 % 33.02 mm
15:06 -11.2 °C -11.1 °C 33788.9 hPa SSW 27.2 km/h 34.1 km/h 98 % 38.1 mm
15:11 -11.2 °C -11.1 °C 33788.9 hPa SW 24.8 km/h 34.1 km/h 98 % 33.02 mm
15:16 -11.2 °C -11.1 °C 33788.9 hPa SW 22 km/h 33.6 km/h 98 % 38.1 mm
15:21 -11.2 °C -11.1 °C 33788.9 hPa SSW 15.6 km/h 33.6 km/h 98 % 33.02 mm
15:26 -11.2 °C -11.1 °C 33751.6 hPa SSW 5.6 km/h 25.4 km/h 98 % 33.02 mm
15:31 -11.2 °C -11.1 °C 33751.6 hPa SSW 19.2 km/h 25.4 km/h 98 % 38.1 mm
15:35 -11.2 °C -11.1 °C 33751.6 hPa SW 18.7 km/h 22.5 km/h 98 % 33.02 mm
15:40 -11.2 °C -11.1 °C 33751.6 hPa SSW 18.7 km/h 22.5 km/h 98 % 33.02 mm
15:45 -11.2 °C -11.1 °C 33751.6 hPa SW 19.2 km/h 22.5 km/h 98 % 33.02 mm
15:47 -11.3 °C -11.1 °C 33751.6 hPa SW 15 km/h 22.5 km/h 98 % 20.32 mm
15:52 -11.3 °C -11.1 °C 33751.6 hPa WSW 16.9 km/h 22.5 km/h 98 % 33.02 mm
15:53 -11.3 °C -11.1 °C 33751.6 hPa SW 15.6 km/h 22.5 km/h 98 % 33.02 mm
15:58 -11.3 °C -11.1 °C 33751.6 hPa SSW 19.2 km/h 22.5 km/h 98 % 33.02 mm
16:01 -11.3 °C -11.1 °C 33751.6 hPa SW 14 km/h 22.5 km/h 98 % 33.02 mm
16:06 -11.3 °C -11.1 °C 33751.6 hPa SW 16.3 km/h 22.5 km/h 98 % 20.32 mm
16:07 -11.3 °C -11.1 °C 33751.6 hPa SW 16.9 km/h 22.5 km/h 98 % 20.32 mm
16:08 -11.3 °C -11.1 °C 33751.6 hPa SW 20.3 km/h 22.5 km/h 98 % 20.32 mm
16:13 -11.3 °C -11.1 °C 33731.3 hPa SW 22 km/h 24.8 km/h 98 % 12.7 mm
16:16 -11.3 °C -11.1 °C 33731.3 hPa SSW 26.7 km/h 28.5 km/h 98 % 12.7 mm
16:21 -11.3 °C -11.1 °C 33731.3 hPa SSW 24.3 km/h 28.5 km/h 98 % 25.4 mm
16:26 -11.3 °C -11.1 °C 33751.6 hPa WSW 24.8 km/h 34.1 km/h 98 % 25.4 mm
16:31 -11.3 °C -11.1 °C 33751.6 hPa SSW 22 km/h 38.3 km/h 98 % 20.32 mm
16:36 -11.3 °C -11.1 °C 33751.6 hPa SW 27.7 km/h 38.3 km/h 98 % 20.32 mm
16:39 -11.3 °C -11.1 °C 33751.6 hPa SSW 31.9 km/h 34.1 km/h 98 % 20.32 mm
16:44 -11.3 °C -11.1 °C 33751.6 hPa WSW 34.8 km/h 34.8 km/h 98 % 25.4 mm
16:47 -11.3 °C -11.1 °C 33751.6 hPa SW 36 km/h 36 km/h 98 % 25.4 mm
16:50 -11.4 °C -11.1 °C 33751.6 hPa SW 33.6 km/h 36 km/h 98 % 20.32 mm
16:52 -11.4 °C -11.1 °C 33751.6 hPa SW 19.6 km/h 36 km/h 98 % 20.32 mm
16:57 -11.4 °C -11.1 °C 33751.6 hPa SW 27.7 km/h 45.1 km/h 98 % 20.32 mm
17:00 -11.4 °C -11.1 °C 33751.6 hPa SSW 27.2 km/h 45.1 km/h 98 % 20.32 mm
17:05 -11.4 °C -11.1 °C 33751.6 hPa SW 22.5 km/h 45.1 km/h 98 % 20.32 mm
17:06 -11.4 °C -11.1 °C 33751.6 hPa SW 22.5 km/h 32.3 km/h 98 % 25.4 mm
17:10 -11.4 °C -11.1 °C 33751.6 hPa SSW 19.6 km/h 37 km/h 98 % 25.4 mm
17:13 -11.4 °C -11.1 °C 33751.6 hPa SW 32.3 km/h 37 km/h 98 % 25.4 mm
17:18 -11.4 °C -11.1 °C 33751.6 hPa SW 20.9 km/h 38.3 km/h 98 % 25.4 mm
17:19 -11.4 °C -11.1 °C 33751.6 hPa WSW 31.9 km/h 38.3 km/h 98 % 25.4 mm
17:24 -11.4 °C -11.7 °C 33751.6 hPa WSW 27.7 km/h 34.1 km/h 98 % 20.32 mm
17:25 -11.4 °C -11.7 °C 33751.6 hPa WSW 27.2 km/h 34.1 km/h 98 % 20.32 mm
17:30 -11.4 °C -11.7 °C 33751.6 hPa WSW 26.7 km/h 38.3 km/h 98 % 20.32 mm
17:31 -11.5 °C -11.7 °C 33751.6 hPa WSW 26.2 km/h 38.3 km/h 98 % 20.32 mm
17:32 -11.5 °C -11.7 °C 33751.6 hPa SW 22.5 km/h 38.3 km/h 98 % 20.32 mm
17:37 -11.5 °C -11.7 °C 33751.6 hPa SSW 20.3 km/h 38.3 km/h 98 % 33.02 mm
17:41 -11.5 °C -11.7 °C 33751.6 hPa WSW 25.4 km/h 36 km/h 98 % 33.02 mm
17:44 -11.6 °C -11.7 °C 33751.6 hPa WSW 34.8 km/h 39.9 km/h 98 % 33.02 mm
17:49 -11.7 °C -11.7 °C 33751.6 hPa WSW 59.5 km/h 62.6 km/h 98 % 45.72 mm
17:51 -11.7 °C -11.7 °C 33751.6 hPa WSW 74.8 km/h 76.4 km/h 98 % 58.42 mm
17:56 -11.8 °C -11.7 °C 33788.9 hPa West 46.3 km/h 76.4 km/h 98 % 63.5 mm
17:58 -11.8 °C -11.7 °C 33788.9 hPa WSW 57.9 km/h 76.4 km/h 98 % 71.12 mm
17:59 -11.8 °C -11.7 °C 33788.9 hPa WSW 53.3 km/h 76.4 km/h 98 % 71.12 mm
18:04 -11.9 °C -11.7 °C 33788.9 hPa SW 41.7 km/h 61.3 km/h 98 % 76.2 mm
18:05 -11.9 °C -11.7 °C 33788.9 hPa WSW 32.3 km/h 61.3 km/h 98 % 71.12 mm
18:10 -12.1 °C -12.2 °C 33788.9 hPa WSW 37.5 km/h 49.2 km/h 98 % 76.2 mm
18:14 -12.1 °C -12.2 °C 33751.6 hPa WSW 36.5 km/h 45.9 km/h 98 % 76.2 mm
18:15 -12.1 °C -12.2 °C 33751.6 hPa WSW 38.3 km/h 45.9 km/h 98 % 76.2 mm
18:17 -12.2 °C -12.2 °C 33751.6 hPa SW 27.7 km/h 45.9 km/h 98 % 76.2 mm
18:22 -12.2 °C -12.2 °C 33751.6 hPa WSW 29 km/h 39.9 km/h 98 % 71.12 mm
18:23 -12.2 °C -12.2 °C 33751.6 hPa West 26.2 km/h 39.9 km/h 98 % 71.12 mm
18:28 -12.2 °C -12.2 °C 33751.6 hPa SW 29.5 km/h 49.7 km/h 97 % 71.12 mm
18:29 -12.2 °C -12.2 °C 33751.6 hPa WSW 28.5 km/h 49.7 km/h 97 % 71.12 mm
18:34 -12.3 °C -12.2 °C 33751.6 hPa SW 33.2 km/h 49.7 km/h 98 % 76.2 mm
18:35 -12.3 °C -12.2 °C 33751.6 hPa SW 34.1 km/h 41.7 km/h 98 % 76.2 mm
18:36 -12.3 °C -12.2 °C 33751.6 hPa WSW 38.3 km/h 41.7 km/h 98 % 71.12 mm
18:41 -12.3 °C -12.2 °C 33751.6 hPa SSW 25.4 km/h 41.7 km/h 98 % 71.12 mm
18:43 -12.3 °C -12.2 °C 33751.6 hPa SW 31.9 km/h 39.9 km/h 98 % 63.5 mm
18:48 -12.3 °C -12.2 °C 33751.6 hPa SSW 22 km/h 34.1 km/h 98 % 45.72 mm
18:49 -12.3 °C -12.2 °C 33751.6 hPa WSW 18.7 km/h 34.1 km/h 98 % 38.1 mm
18:53 -12.3 °C -12.2 °C 33751.6 hPa SW 19.6 km/h 34.1 km/h 98 % 33.02 mm
18:55 -12.3 °C -12.2 °C 33751.6 hPa SW 19.6 km/h 32.3 km/h 98 % 33.02 mm
19:00 -12.3 °C -12.2 °C 33751.6 hPa SSW 22.5 km/h 32.3 km/h 98 % 20.32 mm
19:02 -12.3 °C -12.2 °C 33751.6 hPa SW 27.2 km/h 27.7 km/h 98 % 20.32 mm
19:07 -12.3 °C -12.2 °C 33751.6 hPa SW 22.5 km/h 33.2 km/h 98 % 20.32 mm
19:12 -12.3 °C -12.2 °C 33751.6 hPa SSW 19.2 km/h 33.2 km/h 98 % 7.62 mm
19:18 -12.3 °C -12.2 °C 33751.6 hPa WSW 32.3 km/h 34.1 km/h 98 % 7.62 mm
19:21 -12.3 °C -12.2 °C 33751.6 hPa SSW 26.7 km/h 34.1 km/h 98 % 7.62 mm
19:26 -12.3 °C -12.2 °C 33751.6 hPa SW 43.5 km/h 46.3 km/h 98 % 7.62 mm
19:29 -12.2 °C -12.2 °C 33751.6 hPa SW 24.8 km/h 46.3 km/h 98 % 7.62 mm
19:34 -12.2 °C -12.2 °C 33751.6 hPa WSW 39.9 km/h 46.3 km/h 97 % 0 mm
19:35 -12.2 °C -12.2 °C 33751.6 hPa SW 40.7 km/h 46.3 km/h 97 % 0 mm
19:39 -12.2 °C -12.2 °C 33751.6 hPa WSW 42.2 km/h 45.1 km/h 97 % 0 mm
19:42 -12.2 °C -12.2 °C 33751.6 hPa WSW 34.1 km/h 45.1 km/h 97 % 0 mm
19:47 -12.2 °C -12.2 °C 33751.6 hPa WSW 33.6 km/h 45.1 km/h 97 % 0 mm
19:50 -12.2 °C -12.2 °C 33751.6 hPa WSW 27.2 km/h 45.1 km/h 97 % 0 mm
19:55 -12.2 °C -12.2 °C 33751.6 hPa WSW 40.7 km/h 62 km/h 96 % 0 mm
19:57 -12.2 °C -12.2 °C 33751.6 hPa WSW 57.3 km/h 66 km/h 96 % 0 mm
20:02 -12.1 °C -12.8 °C 33751.6 hPa WSW 37 km/h 66 km/h 93 % 0 mm
20:07 -12.2 °C -12.8 °C 33751.6 hPa WSW 45.1 km/h 63.7 km/h 92 % 0 mm
20:09 -12.2 °C -12.8 °C 33751.6 hPa WSW 51.5 km/h 62 km/h 92 % 0 mm
20:14 -12.2 °C -12.8 °C 33731.3 hPa WSW 61.3 km/h 70.2 km/h 91 % 0 mm
20:15 -12.2 °C -12.8 °C 33731.3 hPa SW 39.4 km/h 70.2 km/h 91 % 0 mm
20:20 -12.2 °C -12.8 °C 33731.3 hPa WSW 44.6 km/h 70.2 km/h 91 % 0 mm
20:23 -12.2 °C -12.8 °C 33731.3 hPa WSW 27.7 km/h 62 km/h 91 % 0 mm
20:25 -12.2 °C -12.8 °C 33731.3 hPa WSW 37 km/h 62 km/h 91 % 0 mm
20:30 -12.2 °C -13.3 °C 33751.6 hPa WSW 39.4 km/h 62 km/h 88 % 0 mm
20:35 -12.3 °C -12.8 °C 33751.6 hPa WSW 33.6 km/h 53.9 km/h 89 % 0 mm
20:38 -12.3 °C -12.8 °C 33751.6 hPa WSW 39.4 km/h 58.6 km/h 89 % 0 mm
20:40 -12.3 °C -12.8 °C 33731.3 hPa WSW 44.6 km/h 63.7 km/h 89 % 0 mm
20:44 -12.3 °C -13.3 °C 33731.3 hPa WSW 44.6 km/h 63.7 km/h 90 % 0 mm
20:49 -12.3 °C -13.3 °C 33731.3 hPa WSW 52.8 km/h 63.7 km/h 90 % 0 mm
20:54 -12.3 °C -13.3 °C 33731.3 hPa WSW 48.1 km/h 56.6 km/h 90 % 0 mm
20:58 -12.3 °C -12.8 °C 33751.6 hPa SW 31.9 km/h 52.8 km/h 90 % 0 mm
21:04 -12.3 °C -12.8 °C 33751.6 hPa WSW 28.5 km/h 53.9 km/h 89 % 0 mm
21:09 -12.3 °C -13.3 °C 33751.6 hPa WSW 40.7 km/h 54.4 km/h 88 % 0 mm
21:13 -12.3 °C -13.3 °C 33751.6 hPa WSW 39.4 km/h 60.3 km/h 87 % 0 mm
21:18 -12.3 °C -13.3 °C 33751.6 hPa WSW 60.3 km/h 60.3 km/h 87 % 0 mm
21:23 -12.3 °C -13.3 °C 33751.6 hPa WSW 48.1 km/h 68.4 km/h 86 % 0 mm
21:24 -12.3 °C -13.3 °C 33751.6 hPa WSW 39.9 km/h 68.4 km/h 86 % 0 mm
21:26 -12.3 °C -13.3 °C 33751.6 hPa WSW 27.2 km/h 68.4 km/h 86 % 0 mm
21:31 -12.3 °C -13.3 °C 33751.6 hPa WSW 39.4 km/h 68.4 km/h 87 % 0 mm
21:37 -12.3 °C -13.3 °C 33751.6 hPa WSW 51.5 km/h 52.8 km/h 87 % 0 mm
21:38 -12.3 °C -13.3 °C 33751.6 hPa WSW 34.1 km/h 52.8 km/h 87 % 0 mm
21:43 -12.3 °C -13.3 °C 33751.6 hPa WSW 60.8 km/h 60.8 km/h 87 % 0 mm
21:44 -12.3 °C -13.3 °C 33751.6 hPa WSW 39.9 km/h 60.8 km/h 87 % 0 mm
21:49 -12.3 °C -13.3 °C 33751.6 hPa WSW 34.1 km/h 60.8 km/h 85 % 0 mm
21:51 -12.3 °C -13.3 °C 33751.6 hPa WSW 43 km/h 60.8 km/h 85 % 0 mm
21:54 -12.3 °C -13.9 °C 33751.6 hPa WSW 39.9 km/h 66.6 km/h 84 % 0 mm
21:56 -12.4 °C -13.9 °C 33751.6 hPa WSW 39.9 km/h 66.6 km/h 84 % 0 mm
22:01 -12.4 °C -13.9 °C 33751.6 hPa WSW 33.6 km/h 66.6 km/h 83 % 0 mm
22:03 -12.4 °C -13.9 °C 33751.6 hPa SW 50.5 km/h 63.2 km/h 83 % 0 mm
22:07 -12.5 °C -13.9 °C 33751.6 hPa WSW 62.6 km/h 78.7 km/h 81 % 0 mm
22:08 -12.5 °C -14.4 °C 33751.6 hPa WSW 56.6 km/h 78.7 km/h 79 % 0 mm
22:13 -12.6 °C -14.4 °C 33751.6 hPa WSW 49.2 km/h 96.9 km/h 76 % 0 mm
22:14 -12.6 °C -14.4 °C 33751.6 hPa WSW 52.8 km/h 96.9 km/h 76 % 0 mm
22:19 -12.7 °C -14.4 °C 33751.6 hPa SW 59.5 km/h 96.9 km/h 77 % 0 mm
22:24 -12.7 °C -14.4 °C 33751.6 hPa WSW 51 km/h 71.8 km/h 78 % 0 mm
22:25 -12.7 °C -14.4 °C 33751.6 hPa WSW 45.1 km/h 71.8 km/h 78 % 0 mm
22:28 -12.7 °C -14.4 °C 33751.6 hPa WSW 45.1 km/h 71.8 km/h 78 % 0 mm
22:32 -12.8 °C -14.4 °C 33751.6 hPa WSW 31.4 km/h 68.9 km/h 78 % 0 mm
22:37 -12.8 °C -14.4 °C 33751.6 hPa SW 62 km/h 74.8 km/h 77 % 0 mm
22:40 -12.8 °C -14.4 °C 33751.6 hPa WSW 57.3 km/h 74.8 km/h 77 % 0 mm
22:45 -12.8 °C -14.4 °C 33751.6 hPa SW 46.8 km/h 71.8 km/h 78 % 0 mm
22:46 -12.8 °C -14.4 °C 33751.6 hPa WSW 45.9 km/h 71.8 km/h 78 % 0 mm
22:51 -12.8 °C -14.4 °C 33751.6 hPa WSW 60.8 km/h 68.9 km/h 77 % 0 mm
22:56 -12.8 °C -14.4 °C 33751.6 hPa SW 51.5 km/h 68.9 km/h 77 % 0 mm
22:58 -12.8 °C -14.4 °C 33751.6 hPa WSW 55.2 km/h 74.8 km/h 77 % 0 mm
23:03 -12.9 °C -14.4 °C 33751.6 hPa WSW 43.5 km/h 74.8 km/h 77 % 0 mm
23:06 -12.9 °C -14.4 °C 33751.6 hPa SW 48.1 km/h 74.8 km/h 77 % 0 mm
23:11 -12.9 °C -14.4 °C 33751.6 hPa SW 38.3 km/h 70.2 km/h 77 % 0 mm
23:14 -12.9 °C -15 °C 33788.9 hPa WSW 48.6 km/h 77.7 km/h 77 % 0 mm
23:17 -12.9 °C -15 °C 33788.9 hPa WSW 65.5 km/h 77.7 km/h 78 % 0 mm
23:22 -12.9 °C -14.4 °C 33788.9 hPa WSW 37 km/h 73.5 km/h 78 % 0 mm
23:23 -12.9 °C -14.4 °C 33788.9 hPa SW 50.5 km/h 73.5 km/h 78 % 0 mm
23:28 -13 °C -14.4 °C 33788.9 hPa WSW 45.9 km/h 74 km/h 82 % 0 mm
23:29 -13 °C -14.4 °C 33788.9 hPa WSW 61.3 km/h 74 km/h 82 % 0 mm
23:34 -13.1 °C -14.4 °C 33788.9 hPa WSW 50.5 km/h 74 km/h 85 % 7.62 mm
23:35 -13.1 °C -14.4 °C 33788.9 hPa West 58.6 km/h 74 km/h 85 % 12.7 mm
23:36 -13.1 °C -14.4 °C 33788.9 hPa WSW 66.6 km/h 74 km/h 85 % 12.7 mm
23:41 -13.2 °C -14.4 °C 33788.9 hPa WSW 41.2 km/h 70.6 km/h 87 % 12.7 mm
23:46 -13.3 °C -14.4 °C 33788.9 hPa WSW 85.8 km/h 85.8 km/h 87 % 12.7 mm
23:47 -13.3 °C -14.4 °C 33788.9 hPa West 71.8 km/h 85.8 km/h 87 % 20.32 mm
23:52 -13.5 °C -14.4 °C 33788.9 hPa WSW 61.3 km/h 85.8 km/h 87 % 20.32 mm
23:53 -13.5 °C -14.4 °C 33788.9 hPa WSW 58.6 km/h 85.8 km/h 87 % 20.32 mm
23:58 -13.7 °C -14.4 °C 33788.9 hPa WSW 51 km/h 81.1 km/h 89 % 20.32 mm
Le Gheer Warneton
Courtoisie de Weather Underground - 2.75 mb

Mise a jour : 17/02/2018 20:16:12
Généré par Cumulus 1.9.4 (1099)